Dewpoint
-12 -13 -14 -14 -14 -15 -15 -15 -15 -14 -14 -14 -13 -13 -15 -16 -17 -16 -13 -11 -11 -3 -2 -1 2 3 3 2 3 2 0 0 0 0 -1 -2 -3 -6 -7 -7 -5 -4 -4 -2 -2
-10 -10 -11 -12 -13 -13 -13 -13 -14 -14 -14 -14 -13 -12 -14 -15 -17 -16 -13 -15 -12 -11 -2 3 2 2 2 1 2 -0 -2 -2 -3 -1 -0 -2 -3 -4 -6 -5 -5 -3 -2 -4 -4
-9 -9 -10 -10 -10 -11 -11 -12 -13 -13 -12 -12 -12 -12 -12 -14 -11 -12 -12 -15 -15 -12 -4 0 0 2 1 0 -0 -2 -1 -4 -4 -2 -3 -3 -4 -5 -5 -6 -5 -6 -5 -2 -2
-10 -9 -8 -8 -9 -10 -10 -11 -12 -13 -13 -12 -13 -12 -12 -13 -13 -10 -6 -8 -11 -11 -4 -0 -1 1 -1 0 -2 -1 -5 -4 -4 -3 -4 -4 -4 -5 -6 -6 -5 -5 -4 -2 -2
-18 -16 -12 -10 -10 -9 -9 -10 -11 -11 -12 -12 -13 -12 -12 -5 -11 -9 -5 -5 -8 -8 -4 -3 -2 -2 -2 -2 -4 -3 -5 -4 -3 -4 -5 -5 -5 -6 -7 -6 -5 -4 -3 -2 -1
-11 -18 -20 -19 -15 -12 -10 -10 -10 -10 -12 -13 -13 -12 -11 -7 -12 -14 -15 -11 -8 -2 -3 -5 -3 -3 -4 -3 -4 -4 -4 -4 -4 -6 -7 -6 -6 -6 -7 -5 -4 -3 -3 -2 -1
-0 -1 -7 -14 -20 -21 -19 -15 -11 -9 -11 -12 -12 -11 -8 -9 -13 -16 -6 -0 -5 -4 -4 -6 -4 -4 -4 -2 -3 -3 -2 -3 -5 -6 -6 -7 -5 -5 -6 -3 -4 -3 -2 -2 -0
3 1 -1 -4 -6 -11 -19 -26 -23 -14 -9 -9 -10 -9 -5 -10 -15 -14 -11 -6 -4 -1 -3 -3 -4 -3 -4 -3 -3 -4 -4 -2 -4 -6 -7 -6 -2 -5 -5 -3 -4 -3 -3 -1 0
4 3 2 -2 -3 -4 -6 -11 -25 -30 -16 -10 -8 -4 -6 -8 -13 -15 -10 -12 -12 -6 -5 -2 -2 -3 -3 -2 -1 -3 -1 -2 -2 -5 -5 -5 -2 -5 -6 -5 -4 -3 -2 -2 -0
3 3 3 2 -3 -4 -6 -7 -14 -29 -19 -9 2 1 -7 -8 -10 -8 -9 -11 -9 -9 -1 -1 -2 -2 -2 -1 2 -1 -2 -3 -1 -3 -4 -3 -3 -5 -6 -6 -3 -3 -2 -1 -0
1 2 3 3 2 -5 -6 -8 -1 4 5 -5 -3 -10 -9 -10 -11 -8 -6 -9 -10 -3 -2 -2 -2 -0 -2 -2 -2 -3 -2 -2 -2 -3 -3 -1 -2 -4 -5 -6 -4 -3 -1 -1 0
1 1 2 2 2 -2 -5 -5 -2 -2 -3 -3 -2 -3 -7 -4 -6 -9 -4 -8 -8 -3 -3 -1 -0 -3 -4 -3 -2 -2 -1 -0 -2 -3 -2 -2 -3 -5 -5 -6 -5 -2 -0 0 1
-0 1 1 2 2 0 -1 -1 -7 -2 -3 -8 -7 -5 -6 -5 -7 -8 -5 -9 -8 -5 -3 -1 -3 -4 -3 -1 -0 -1 -0 -0 -0 -2 -3 -3 -2 -4 -5 -6 -4 -2 -1 0 1
0 -1 0 2 0 1 -2 -1 -5 -7 -4 -8 -6 -7 -8 -8 -6 -10 -5 -8 -7 -6 -5 -3 -5 -3 -1 -1 -2 -0 -2 -2 -1 -1 -1 -2 1 -3 -5 -5 -5 -3 -1 -0 1
-3 -0 -0 2 3 0 -0 -2 -3 -1 -1 -10 -6 -6 -9 -7 -14 -12 -8 -5 -7 -7 -4 -2 -3 -1 -1 -3 -4 -2 -5 -2 -2 -1 -0 -2 0 -4 -6 -5 -7 -9 -3 0 1
-3 -0 -1 0 3 2 0 -4 -1 1 -1 -7 -5 -4 -6 -7 -12 -11 -9 -7 -6 -7 -5 -4 -4 -3 -3 -6 -5 -5 -2 -2 -1 -2 2 -2 -2 -5 -7 -6 -7 -7 -1 1 1
-6 -2 -1 0 2 1 1 -1 0 -1 -8 -6 -4 -5 -6 -5 -8 -6 -7 -7 -6 -2 -0 -2 -2 -3 -4 -4 -3 -3 -1 2 3 2 1 -2 -3 -5 -7 -8 -6 -5 -4 1 1
-5 -3 0 1 -0 2 1 -2 -0 -5 -5 -9 -8 -5 -4 -6 -8 -6 -6 -7 -8 -6 -4 -2 -1 -2 -3 -5 -2 -2 -1 0 3 3 -0 -1 -1 -6 -8 -6 -2 0 2 2 1
-1 -3 1 1 -2 1 2 -0 -3 -6 -8 -7 -9 -4 -4 -5 -7 -7 -6 -8 -8 -7 -5 -2 -2 -5 -4 -6 -6 -2 -0 -3 -0 -1 1 -3 -4 -5 -6 -4 -1 2 3 2 2
0 -2 -1 1 1 1 3 1 -7 -10 -9 -8 -5 -6 -3 -4 -5 -5 -6 -8 -10 -9 -7 -3 -0 -4 -4 -5 -6 -4 -4 0 -1 3 3 -2 -2 -4 -5 -2 3 4 3 3 2
0 -0 -1 1 1 1 3 -1 -5 -9 -7 -4 -6 -6 -8 -5 -5 -5 -7 -9 -10 -10 -7 -5 -2 -1 -4 -2 -3 -2 -1 -1 -2 -2 1 2 -1 -4 -4 1 3 3 3 3 2
-1 1 0 2 2 1 3 -2 -6 -8 -8 -9 -5 -4 -7 -8 -4 -5 -6 -7 -11 -10 -5 -4 -3 1 -2 -5 -6 -4 -3 -1 1 2 -0 -1 -2 -5 -3 2 3 4 3 2 1
0 -1 1 2 2 2 -1 -1 -3 -6 -5 -4 -5 -5 -6 -6 -3 -5 -5 -8 -10 -9 -5 -3 -2 0 -2 1 -1 -3 -4 -3 -1 -0 1 1 -1 -3 0 2 4 4 3 2 1
-0 0 0 1 1 -1 -2 -1 1 -4 -5 -6 -5 -4 -2 -4 -5 -4 -5 -7 -10 -9 -7 -3 -2 -0 0 1 -1 0 -3 -3 -1 2 1 -0 -2 -3 -2 0 3 4 3 2 1
-1 -1 1 2 -0 2 -2 -0 -0 -1 -5 -6 -4 -5 -2 -2 -4 -4 -4 -5 -7 -7 -1 0 1 -2 -5 -6 -3 -2 -3 -3 -1 -0 1 -2 -2 -3 -4 -2 -1 4 4 2 1
-0 0 -0 1 0 0 -1 -2 -3 -4 -2 -5 -4 -5 -2 -0 -3 -5 -5 -3 -4 -5 -3 1 0 -2 -2 -6 -6 -3 -3 -2 -2 -2 -2 -3 -2 -4 -5 -4 0 3 4 2 1
-0 -0 -0 1 2 1 2 -0 -3 -4 -5 -6 -7 -6 -3 -2 -2 -2 -2 -2 -3 -1 0 1 1 0 0 -5 -5 -1 -4 -3 -2 -3 -2 -1 -3 -5 -4 -1 -0 3 3 2 2
Wind_Speed
16 16 16 16 16 16 16 15 15 16 15 16 15 16 17 17 18 24 27 22 21 12 18 12 11 12 13 13 11 8 11 12 12 13 12 6 11 4 5 10 8 9 9 5 7
16 17 16 18 18 17 17 15 17 15 16 15 16 17 17 18 21 28 31 19 17 23 22 16 15 15 16 16 12 13 12 15 9 12 14 18 11 15 7 8 12 10 9 11 9
19 18 19 19 18 18 18 17 17 16 16 15 14 14 14 15 17 15 17 12 21 23 21 21 16 18 19 15 16 15 15 14 15 16 19 21 15 12 12 12 11 10 12 12 11
21 21 21 21 20 19 19 18 17 18 17 16 16 14 13 10 7 6 7 10 20 26 21 22 21 22 19 17 18 15 18 19 18 14 14 9 8 10 14 14 4 7 7 14 15
21 22 23 23 23 22 22 20 19 19 17 17 16 14 13 11 21 7 11 7 1 17 28 26 25 26 19 19 17 14 18 16 16 14 10 5 9 9 12 9 11 9 11 15 15
22 22 22 22 23 23 24 23 22 20 18 19 17 15 12 21 16 14 24 26 17 13 25 29 26 26 18 20 15 14 12 15 13 12 7 8 4 4 9 4 10 12 14 14 15
21 21 21 22 22 22 22 22 22 22 20 20 19 16 18 31 11 11 5 7 14 20 18 30 28 21 21 13 18 13 14 13 14 11 6 6 9 10 11 5 11 15 14 15 15
22 20 22 22 23 23 22 20 20 22 22 21 18 17 17 18 22 29 26 19 7 16 17 19 26 21 15 10 10 14 15 15 13 10 6 7 10 10 9 10 15 15 17 17 16
21 20 21 21 18 21 22 19 19 19 21 19 15 12 18 15 26 27 24 23 21 17 12 12 24 22 17 15 15 15 15 19 10 12 6 11 13 8 10 12 16 16 18 18 17
20 20 21 22 19 19 20 18 16 16 16 11 10 6 21 13 15 13 15 21 13 19 14 17 19 16 17 16 16 16 13 12 13 10 10 12 14 14 17 16 15 17 19 20 20
23 22 20 20 21 17 16 8 5 5 12 16 10 21 1 10 14 10 12 19 19 24 17 25 19 22 27 22 17 13 12 14 11 6 10 15 15 15 18 21 16 18 19 22 20
18 19 20 19 20 16 11 5 6 5 12 23 33 25 24 6 7 19 16 18 24 22 22 16 23 25 22 18 17 15 17 17 11 10 9 16 17 18 17 19 16 16 19 21 19
19 17 17 17 17 15 9 6 8 4 9 18 30 35 34 22 15 18 24 27 23 26 27 23 21 22 19 15 18 19 17 14 12 12 12 16 18 13 8 11 13 14 15 18 22
18 15 14 14 15 9 7 9 8 3 7 11 12 16 36 28 19 30 26 26 20 28 27 22 20 19 18 22 20 20 15 15 14 13 12 4 15 14 11 12 12 14 15 17 21
17 13 12 13 5 4 4 6 4 5 8 6 13 8 23 36 10 32 27 27 20 19 24 25 23 23 22 21 19 16 13 12 14 12 12 16 8 10 6 10 9 8 13 16 20
17 14 11 18 18 13 7 6 5 7 14 9 12 17 19 33 19 19 34 24 22 20 20 23 19 19 19 14 13 14 8 9 8 11 12 15 10 10 3 4 6 6 1 11 18
17 16 14 16 15 11 11 8 8 14 7 12 12 18 25 18 27 18 30 29 18 22 22 25 20 19 18 18 13 16 13 9 10 9 11 2 6 11 10 8 9 9 6 9 19
15 18 17 18 18 9 8 11 17 22 28 9 14 21 23 20 25 25 24 28 28 25 17 22 23 25 18 20 16 19 17 11 10 11 11 6 6 4 2 6 7 5 5 11 21
14 17 18 17 19 20 15 16 20 25 16 26 11 20 19 21 12 24 27 30 32 28 18 22 24 27 23 21 20 14 15 16 15 14 8 12 6 11 6 7 4 3 6 15 23
13 14 20 18 19 23 9 30 21 19 6 19 31 20 24 25 16 24 24 22 32 32 25 10 20 15 23 20 22 21 15 10 10 13 13 9 7 6 3 5 4 7 10 17 23
12 8 10 20 21 14 12 31 28 27 7 10 21 28 23 21 24 27 19 12 32 32 27 16 12 21 17 22 22 12 16 13 13 13 12 9 5 5 2 3 2 8 13 20 23
11 4 8 24 11 3 9 32 39 18 23 20 10 20 22 21 25 24 23 22 26 27 34 30 12 14 22 20 22 22 22 21 11 15 10 10 9 4 4 1 1 10 16 22 23
5 8 7 25 9 12 11 26 26 22 16 13 16 13 21 21 17 24 19 15 20 27 25 24 15 15 15 10 14 22 21 21 20 15 16 11 10 6 6 5 4 12 18 21 25
4 3 7 17 15 18 24 19 18 22 21 23 18 19 18 20 18 15 19 18 21 26 23 25 17 26 22 21 19 21 21 23 22 16 16 16 16 9 8 9 7 10 16 22 27
6 5 4 4 7 12 9 10 12 19 23 23 11 19 13 16 23 17 18 17 16 26 22 20 24 24 24 21 24 21 23 24 25 23 19 16 17 14 10 8 8 12 16 20 27
5 3 3 3 3 15 14 18 21 17 18 25 21 23 6 12 12 21 16 17 21 19 25 21 15 19 20 25 20 22 24 24 25 25 22 19 17 11 12 6 8 14 19 23 28
10 13 3 3 3 1 3 12 18 17 22 25 25 14 15 5 11 11 10 1 4 19 21 20 16 14 21 20 21 22 25 25 24 25 22 22 19 15 10 12 14 15 19 22 25
Wind_Direction
276 273 270 276 275 272 274 279 281 285 290 293 298 296 287 283 278 271 264 243 229 218 205 184 190 193 196 218 223 240 259 259 267 278 291 289 281 223 262 242 224 218 251 246 221
276 276 277 276 275 276 277 278 276 277 277 282 288 291 291 289 283 270 266 260 237 224 217 203 202 196 199 218 212 227 250 262 282 292 285 293 280 293 232 223 235 236 236 242 242
276 274 270 269 271 274 279 283 282 282 285 285 283 287 292 297 295 266 272 235 214 224 212 211 210 202 220 218 213 226 253 276 271 271 290 288 285 263 255 263 254 250 231 220 213
277 275 276 275 275 276 279 278 277 277 279 280 278 284 287 289 262 284 228 201 209 198 201 201 201 203 218 214 225 240 250 260 269 289 291 277 269 250 244 273 307 240 233 209 211
286 281 276 274 276 277 276 275 276 276 279 280 279 284 285 264 247 250 186 165 92 206 198 202 203 206 216 217 229 231 263 258 268 273 259 260 246 273 271 286 250 240 216 215 214
285 284 281 277 272 270 270 269 270 272 272 275 277 275 274 255 253 252 240 248 247 213 207 203 212 214 231 232 233 245 258 270 265 253 219 236 234 248 294 260 239 227 223 219 212
292 285 284 281 277 275 273 272 272 270 267 266 267 272 258 243 254 241 226 242 228 215 215 211 211 206 221 223 234 251 255 241 236 220 226 239 248 255 287 236 243 235 226 217 210
303 296 290 284 286 283 280 278 274 268 265 262 265 274 254 256 257 250 250 247 241 201 210 212 208 214 221 203 205 230 237 251 196 203 176 219 270 271 289 231 238 232 227 215 211
296 302 302 300 294 289 285 284 282 275 264 262 269 236 259 255 243 249 237 226 229 217 217 200 197 210 211 228 238 227 250 232 235 200 198 216 276 281 295 261 263 243 228 219 211
284 294 300 305 303 293 285 292 290 280 259 250 229 236 245 234 227 224 220 206 196 192 187 192 190 199 217 215 229 232 224 243 257 188 225 253 256 271 279 258 261 255 235 223 214
277 279 288 293 297 298 288 309 276 234 219 212 208 216 80 219 223 210 194 188 194 187 188 192 203 206 209 218 238 265 257 257 253 269 264 275 285 287 282 276 259 256 230 222 215
286 275 274 283 294 293 293 267 231 262 290 247 243 241 241 271 229 214 192 181 190 197 199 188 215 212 220 218 229 232 243 249 254 267 278 289 284 292 289 271 262 246 227 218 207
296 286 272 276 288 295 260 238 234 273 259 260 234 230 227 221 229 207 192 202 193 201 200 204 214 216 213 214 217 229 242 249 259 292 274 266 273 287 288 246 248 242 232 215 206
295 296 282 271 293 254 257 209 223 244 273 245 205 239 213 213 233 220 202 194 208 207 205 216 216 189 200 217 216 233 221 259 259 270 283 345 293 293 271 264 231 230 223 214 202
279 281 273 240 262 251 197 196 216 174 268 170 181 179 191 187 165 203 194 200 212 205 200 208 205 192 207 214 212 242 236 234 258 271 285 267 256 291 260 277 262 242 215 210 198
260 267 257 254 234 231 258 196 168 213 236 195 161 182 173 200 212 161 186 199 212 211 211 222 208 202 212 213 215 226 204 227 248 259 254 260 260 280 278 300 282 253 89 195 188
250 254 239 248 228 242 244 205 199 225 168 189 181 178 180 187 203 176 187 193 189 194 202 214 192 209 214 208 205 222 214 229 223 221 252 142 256 259 305 292 290 290 298 185 179
260 239 242 231 230 209 220 217 219 224 221 119 189 182 192 173 202 191 190 195 208 201 192 199 208 192 198 205 187 202 210 235 232 246 254 158 259 233 327 309 287 290 284 171 173
248 234 240 226 220 214 227 214 220 219 221 225 193 192 197 190 191 195 205 204 200 200 210 196 208 196 203 209 217 185 219 228 255 268 272 275 214 254 255 242 219 205 150 163 169
223 229 235 217 209 212 219 235 228 233 283 219 223 201 197 192 201 192 193 211 206 210 213 192 207 188 197 207 213 226 201 203 224 243 241 244 240 262 276 33 116 170 156 164 168
188 218 222 206 194 206 212 226 236 263 323 290 237 229 223 191 203 193 199 188 202 196 207 186 203 195 190 204 203 189 223 214 252 226 233 248 259 84 287 47 56 156 163 167 173
191 215 206 187 191 217 227 226 237 282 314 266 300 266 229 222 201 198 216 203 193 189 198 203 199 179 210 198 218 202 213 206 221 212 245 276 263 116 261 120 270 160 169 173 172
204 217 223 194 203 219 246 244 250 248 276 311 274 253 248 231 223 216 209 198 187 190 196 191 211 206 196 189 214 224 211 218 217 245 241 227 232 140 168 197 189 167 169 174 173
180 216 208 210 248 241 231 245 253 254 257 272 269 292 269 236 223 208 209 191 191 189 187 191 201 207 207 203 195 208 223 215 215 222 231 236 252 208 208 216 179 180 176 174 177
217 226 244 193 237 254 253 241 254 240 239 262 288 245 279 233 218 223 204 179 199 190 188 187 209 208 224 215 201 208 214 213 218 219 231 232 234 236 240 209 218 189 181 179 179
195 228 216 219 266 213 229 244 253 245 245 245 248 273 273 259 263 214 200 191 187 182 193 191 212 218 212 220 210 214 218 212 217 221 228 238 251 222 242 264 191 186 185 188 187
221 249 261 166 180 218 291 243 253 250 237 249 241 264 259 318 316 321 320 339 161 185 189 191 206 207 219 216 222 226 216 214 219 224 226 230 234 245 230 233 212 195 194 194 196
Height
1533 1532 1530 1528 1528 1529 1528 1527 1526 1526 1525 1523 1522 1522 1520 1517 1516 1516 1511 1513 1518 1521 1520 1525 1527 1530 1532 1533 1533 1532 1527 1520 1515 1516 1511 1511 1515 1516 1517 1516 1520 1521 1521 1522 1521
1529 1528 1526 1527 1526 1525 1526 1525 1525 1523 1522 1519 1518 1520 1517 1513 1512 1507 1507 1511 1512 1515 1519 1522 1525 1528 1528 1528 1529 1526 1520 1515 1511 1512 1511 1508 1510 1512 1516 1515 1518 1520 1520 1520 1520
1527 1526 1526 1526 1524 1523 1522 1521 1520 1519 1518 1518 1518 1518 1513 1512 1512 1502 1501 1502 1504 1508 1514 1518 1522 1524 1523 1522 1522 1520 1518 1513 1511 1511 1509 1507 1506 1510 1510 1507 1509 1512 1514 1518 1518
1521 1520 1519 1519 1519 1517 1515 1515 1516 1516 1517 1514 1513 1512 1510 1512 1507 1497 1497 1499 1499 1501 1511 1513 1516 1518 1515 1515 1517 1518 1515 1514 1511 1510 1509 1506 1506 1507 1508 1505 1509 1508 1511 1513 1514
1512 1512 1512 1512 1511 1511 1512 1512 1512 1511 1509 1508 1509 1508 1507 1507 1500 1501 1498 1497 1498 1500 1502 1507 1510 1511 1509 1509 1510 1512 1509 1509 1508 1508 1507 1506 1505 1505 1503 1505 1507 1507 1507 1509 1511
1510 1509 1507 1507 1508 1509 1509 1506 1506 1505 1503 1502 1504 1505 1505 1502 1496 1495 1493 1494 1496 1499 1501 1503 1503 1506 1505 1503 1504 1506 1506 1505 1505 1504 1505 1503 1501 1505 1499 1501 1505 1505 1504 1505 1508
1506 1505 1504 1503 1503 1503 1501 1500 1498 1497 1497 1499 1501 1500 1497 1487 1490 1490 1489 1492 1491 1495 1497 1498 1501 1501 1503 1502 1503 1504 1505 1501 1501 1501 1500 1502 1500 1500 1497 1498 1500 1502 1501 1502 1505
1501 1499 1497 1496 1496 1495 1494 1493 1493 1493 1493 1495 1495 1495 1486 1482 1485 1483 1486 1489 1488 1491 1494 1496 1499 1500 1498 1498 1501 1499 1497 1497 1486 1497 1498 1501 1501 1493 1494 1495 1494 1495 1497 1498 1502
1496 1494 1492 1491 1491 1489 1489 1488 1488 1488 1488 1490 1491 1492 1481 1473 1473 1475 1478 1480 1485 1488 1490 1492 1495 1495 1498 1495 1495 1489 1497 1487 1486 1489 1489 1495 1491 1486 1490 1492 1490 1489 1491 1494 1498
1490 1490 1489 1487 1486 1484 1483 1484 1482 1483 1482 1484 1486 1493 1474 1466 1467 1467 1470 1475 1480 1483 1488 1489 1488 1487 1486 1486 1493 1489 1489 1483 1489 1483 1488 1485 1485 1483 1485 1483 1485 1485 1487 1490 1493
1485 1484 1484 1483 1482 1480 1480 1481 1483 1481 1476 1470 1469 1464 1461 1463 1463 1464 1465 1470 1475 1477 1474 1478 1478 1475 1471 1475 1476 1477 1484 1484 1479 1481 1487 1482 1477 1477 1478 1477 1476 1478 1481 1484 1488
1480 1479 1480 1479 1478 1476 1476 1478 1476 1475 1469 1462 1461 1461 1461 1462 1459 1460 1463 1465 1466 1463 1467 1472 1467 1462 1468 1471 1478 1482 1483 1482 1477 1481 1484 1479 1475 1471 1471 1468 1469 1472 1475 1479 1485
1476 1475 1475 1475 1474 1474 1474 1477 1474 1475 1471 1449 1447 1446 1452 1458 1453 1451 1455 1456 1455 1457 1456 1457 1456 1462 1464 1470 1479 1478 1479 1479 1482 1478 1479 1476 1474 1463 1463 1462 1464 1467 1469 1473 1478
1471 1471 1471 1471 1474 1471 1471 1472 1474 1476 1461 1429 1434 1426 1438 1450 1445 1446 1446 1449 1449 1445 1447 1452 1449 1455 1465 1468 1472 1475 1471 1476 1479 1483 1486 1474 1484 1463 1457 1454 1454 1460 1464 1467 1473
1467 1467 1469 1469 1470 1471 1471 1469 1473 1476 1455 1401 1415 1420 1420 1427 1422 1426 1439 1444 1439 1438 1444 1442 1443 1455 1459 1460 1463 1469 1465 1473 1475 1478 1479 1475 1477 1460 1449 1455 1449 1449 1454 1462 1469
1463 1464 1465 1465 1465 1469 1470 1469 1473 1466 1434 1402 1406 1409 1413 1422 1417 1418 1429 1439 1441 1438 1437 1438 1442 1449 1451 1455 1460 1465 1472 1475 1476 1476 1486 1466 1467 1458 1450 1450 1446 1446 1451 1458 1465
1457 1459 1460 1461 1462 1467 1468 1470 1460 1432 1390 1393 1398 1401 1402 1409 1413 1416 1420 1426 1424 1439 1439 1439 1438 1443 1448 1454 1460 1462 1470 1481 1484 1480 1480 1462 1470 1455 1444 1443 1443 1445 1448 1456 1462
1451 1453 1454 1456 1461 1462 1466 1463 1430 1385 1387 1380 1384 1392 1395 1396 1402 1406 1412 1416 1416 1416 1421 1433 1445 1436 1440 1442 1453 1457 1459 1466 1484 1480 1465 1462 1470 1448 1439 1442 1445 1447 1449 1453 1460
1444 1447 1447 1450 1454 1459 1462 1440 1386 1383 1377 1384 1386 1388 1389 1386 1387 1398 1398 1399 1402 1403 1409 1419 1424 1420 1432 1438 1440 1447 1459 1449 1460 1456 1471 1455 1448 1440 1437 1436 1441 1445 1449 1453 1459
1437 1442 1441 1445 1449 1453 1453 1417 1390 1383 1382 1377 1381 1376 1380 1380 1387 1386 1390 1384 1393 1398 1401 1407 1426 1420 1428 1436 1435 1435 1444 1463 1458 1477 1478 1456 1454 1446 1437 1435 1439 1444 1448 1454 1458
1433 1436 1435 1439 1443 1445 1431 1406 1404 1390 1392 1388 1377 1371 1365 1371 1373 1376 1370 1374 1380 1390 1399 1402 1413 1421 1424 1428 1430 1438 1442 1444 1443 1445 1460 1466 1450 1430 1434 1435 1435 1439 1446 1452 1456
1430 1431 1429 1432 1438 1436 1427 1406 1410 1401 1400 1392 1386 1371 1362 1360 1366 1366 1368 1368 1372 1380 1391 1393 1409 1421 1420 1415 1419 1422 1431 1437 1447 1456 1450 1448 1443 1427 1431 1435 1436 1438 1444 1448 1453
1426 1427 1428 1428 1424 1426 1417 1413 1412 1406 1410 1400 1389 1376 1365 1362 1367 1360 1364 1367 1370 1375 1384 1394 1404 1422 1420 1424 1418 1419 1422 1426 1433 1437 1443 1449 1443 1426 1432 1434 1437 1437 1442 1447 1451
1425 1425 1425 1425 1422 1414 1410 1411 1414 1408 1409 1411 1401 1391 1380 1363 1357 1357 1361 1364 1367 1371 1379 1387 1393 1397 1401 1406 1414 1424 1419 1419 1426 1437 1439 1434 1431 1422 1426 1429 1434 1437 1441 1444 1449
1423 1420 1420 1416 1420 1415 1412 1412 1407 1407 1409 1405 1394 1386 1374 1367 1360 1360 1358 1363 1367 1369 1378 1381 1390 1390 1391 1391 1399 1408 1413 1414 1421 1423 1430 1425 1424 1420 1419 1421 1426 1434 1439 1443 1446
1421 1420 1419 1417 1416 1414 1413 1405 1401 1401 1408 1395 1397 1389 1380 1373 1361 1358 1355 1360 1359 1363 1370 1376 1383 1384 1391 1389 1392 1402 1402 1406 1411 1413 1417 1417 1418 1412 1417 1419 1425 1430 1434 1438 1440
1416 1417 1417 1412 1414 1413 1411 1406 1398 1397 1398 1394 1393 1387 1383 1377 1380 1372 1368 1363 1357 1360 1364 1373 1379 1385 1394 1388 1395 1403 1390 1396 1402 1403 1407 1415 1412 1410 1413 1419 1421 1426 1430 1432 1436